www.pogodaiklimat.ru

Погода и климат >> Архив погоды >> Бразилия >> Сан-Паулу >> Ориньюс


ПОГОДА в Ориньюсе

  • Прогноз погоды в Ориньюсе
  • Монитор погоды в Ориньюсе

АРХИВ ПОГОДЫ в Ориньюсе

Время (UTC), дата Ветер
(напр.,м/с)
 
Видим.   Явления Облачность Т
(С)
Тd
(С)
f
(%)
Тe
(С)
Тes
(С)
Комфортность P
(гПа)
Po
(гПа)
Тmin
(С)
Tmax
(С)
R
(мм)
R24
(мм)
S
(см)
22 15.04 штиль 0
{1}
н/о н/о +25.0 +19.5 72 +30 +30 душно 1021.3 970.7
23 15.04 штиль 0
{1}
н/о н/о +23.7 +19.8 79 +29 +29 душно 1022.3 971.4
00 16.04 СВ 1
{2}
н/о н/о +22.9 +20.1 84 +30 +30 очень
душно
1023.4 972.3
01 16.04 штиль 0
{2}
н/о н/о +23.2 +19.8 81 +30 +30 очень
душно
1024.4 973.3
02 16.04 ЮВ 1
{3}
н/о н/о +22.8 +19.3 81 +29 +29 очень
душно
1024.5 973.3
03 16.04 ЮВ 1
{3}
н/о н/о +22.7 +19.2 81 +29 +29 очень
душно
1024.6 973.4
04 16.04 ЮВ 1
{3}
н/о н/о +22.4 +19.0 81 +28 +28 душно 1024.0 972.8
05 16.04 штиль 0
{2}
н/о н/о +20.8 +18.8 88 +25 +25 комфорт 1023.4 972.0
06 16.04 штиль 0
{1}
н/о н/о +20.7 +18.7 88 +24 +24 комфорт 1023.0 971.6
07 16.04 штиль 0
{1}
н/о н/о +20.1 +18.6 91 +23 +23 комфорт 1023.1 971.6
08 16.04 штиль 0
{1}
н/о н/о +20.6 +18.8 89 +24 +24 комфорт 1023.2 971.7
09 16.04 штиль 0
{1}
н/о н/о +19.7 +18.6 93 +22 +22 комфорт 1023.4 971.8
10 16.04 штиль 0
{1}
н/о н/о +20.1 +19.1 94 +23 +23 комфорт 1024.4 972.8
11 16.04 штиль 0 н/о н/о +21.7 +20.6 93 +27 +27 душно 1023.9 972.6
12 16.04 В 1
{2}
н/о н/о +23.8 +20.2 80 +29 +29 душно 1023.9 972.9
13 16.04 В 1
{3}
н/о н/о +26.0 +19.9 69 +32 +32 очень
душно
1023.3 972.7
14 16.04 С 1
{3}
н/о н/о +27.4 +21.6 71 +35 +35 очень
душно
1022.3 972.0
15 16.04 СЗ 1
{2}
н/о н/о +27.9 +21.4 68 +36 +36 очень
душно
1021.5 971.3
16 16.04 СЗ 1
{2}
н/о н/о +29.9 +21.5 61 +38 +38 очень
душно
1020.3 970.5
17 16.04 СЗ 1
{4}
н/о н/о +30.5 +20.9 57 +38 +38 очень
душно
1019.2 969.6
18 16.04 З 1
{4}
н/о н/о +29.0 +20.3 59 +35 +35 очень
душно
1018.2 968.4
19 16.04 З 1
{3}
н/о н/о +29.3 +20.4 59 +36 +36 очень
душно
1017.6 967.9
20 16.04 З 1
{4}
н/о н/о +28.0 +20.5 64 +35 +35 очень
душно
1018.1 968.1
21 16.04 З 1
{2}
н/о н/о +26.1 +20.5 71 +32 +32 очень
душно
1018.5 968.2
22 16.04 З 1
{2}
н/о н/о +26.0 +19.2 66 +31 +31 очень
душно
1018.6 968.3
23 16.04 штиль 0
{2}
н/о н/о +24.4 +19.7 75 +30 +30 очень
душно
1019.3 968.7
00 17.04 штиль 0
{1}
н/о н/о +22.8 +20.1 85 +29 +29 очень
душно
1020.0 969.1
01 17.04 штиль 0 н/о н/о +21.8 +19.9 89 +27 +27 душно 1020.8 969.7
02 17.04 штиль 0 н/о н/о +21.6 +19.9 90 +27 +27 душно 1020.9 969.7
03 17.04 ЮЗ 1
{3}
н/о н/о +22.3 +20.3 88 +29 +29 очень
душно
1021.2 970.1
04 17.04 Ю 1
{3}
н/о н/о +21.6 +18.7 84 +26 +26 душно 1020.7 969.5
05 17.04 штиль 0
{2}
н/о н/о +20.5 +18.9 91 +24 +24 комфорт 1019.9 968.6
06 17.04 штиль 0
{1}
н/о н/о +19.8 +18.4 92 +22 +22 комфорт 1020.1 968.7
07 17.04 штиль 0
{1}
н/о н/о +18.9 +17.8 93 +20 +20 1020.0 968.4
08 17.04 штиль 0
{1}
н/о н/о +18.9 +18.0 95 +20 +20 1020.4 968.8
09 17.04 штиль 0 н/о н/о +18.1 +17.4 96 +18 +18 1020.8 969.0
10 17.04 штиль 0 н/о н/о +18.2 +17.5 96 +19 +19 1021.5 969.7
11 17.04 штиль 0 н/о н/о +19.6 +18.9 96 +22 +22 комфорт 1021.9 970.3
12 17.04 штиль 0
{1}
н/о н/о +23.9 +20.5 81 +30 +30 очень
душно
1021.4 970.6
13 17.04 штиль 0
{1}
н/о н/о +26.0 +19.8 69 +32 +32 очень
душно
1021.4 970.9
14 17.04 штиль 0
{1}
н/о н/о +27.1 +19.2 62 +33 +33 очень
душно
1021.1 970.8
15 17.04 З 1
{2}
н/о н/о +29.0 +19.5 57 +35 +35 очень
душно
1019.9 970.0
16 17.04 З 1
{2}
н/о н/о +29.6 +18.9 53 +35 +35 очень
душно
1018.8 969.0
17 17.04 З 1
{3}
н/о н/о +30.1 +18.1 49 +35 +35 очень
душно
1017.8 968.2
18 17.04 З 1
{3}
н/о н/о +29.9 +16.2 44 +33 +33 душно 1017.2 967.6
19 17.04 З 1
{3}
н/о н/о +29.5 +17.1 47 +33 +33 душно 1016.9 967.2
20 17.04 СЗ 1
{3}
н/о н/о +27.4 +17.5 55 +32 +32 очень
душно
1017.7 967.6
21 17.04 штиль 0
{2}
н/о н/о +25.4 +17.2 60 +29 +29 душно 1018.1 967.7
22 17.04 штиль 0
{2}
н/о н/о +23.6 +17.4 68 +27 +27 жарко 1018.8 968.1
23 17.04 штиль 0
{1}
н/о н/о +22.2 +17.8 76 +27 +27 душно 1019.9 968.9
00 18.04 штиль 0
{1}
н/о н/о +21.2 +17.8 81 +25 +25 комфорт 1020.7 969.5
01 18.04 штиль 0 н/о н/о +19.9 +17.9 88 +23 +23 комфорт 1021.4 969.9
02 18.04 штиль 0 н/о н/о +19.0 +17.6 92 +20 +20 1021.4 969.8
03 18.04 штиль 0 н/о н/о +18.3 +17.3 94 +19 +19 1021.5 969.7
04 18.04 штиль 0 н/о н/о +17.9 +17.2 96 +18 +18 1021.5 969.7
05 18.04 штиль 0 н/о н/о +17.6 +16.8 95 +18 +18 1021.5 969.6
06 18.04 штиль 0 н/о н/о +17.1 +16.4 96 +17 +17 1021.6 969.6
07 18.04 штиль 0 н/о н/о +16.2 +15.6 96 +16 +16 1021.7 969.6
08 18.04 штиль 0 н/о н/о +15.5 +14.9 96 +15 +15 1021.7 969.4
09 18.04 штиль 0 н/о н/о +15.4 +14.8 96 +15 +15 1022.2 969.9
10 18.04 штиль 0 н/о н/о +15.4 +14.8 96 +15 +15 1023.0 970.6
11 18.04 штиль 0
{1}
н/о н/о +16.3 +15.8 97 +16 +16 1023.7 971.5
12 18.04 ЮВ 1
{2}
н/о н/о +19.5 +18.8 96 +24 +24 комфорт 1023.6 971.9 0.2
13 18.04 В 1
{2}
н/о н/о +21.6 +18.8 84 +26 +26 душно 1023.5 972.2
14 18.04 В 1
{2}
н/о н/о +24.5 +17.8 66 +29 +29 душно 1022.7 971.9
15 18.04 ЮЗ 1
{2}
н/о н/о +26.9 +16.2 52 +30 +30 душно 1021.3 971.0
16 18.04 З 1
{2}
н/о н/о +28.2 +13.4 40 +30 +30 жарко 1020.3 970.2
17 18.04 ЮЗ 1
{2}
н/о н/о +28.8 +14.7 42 +31 +31 жарко 1019.2 969.3
18 18.04 Ю 1
{3}
н/о н/о +28.9 +12.9 37 +30 +30 жарко 1018.4 968.6
19 18.04 СЗ 1
{2}
н/о н/о +28.2 +15.6 46 +31 +31 душно 1018.4 968.4
20 18.04 штиль 0
{2}
н/о н/о +26.0 +15.2 51 +29 +29 душно 1018.7 968.4
21 18.04 штиль 0 н/о н/о +23.4 +16.9 67 +29 +29 душно 1019.2 968.4
22 18.04 штиль 0 н/о н/о +21.2 +16.7 75 +25 +25 комфорт 1020.0 968.8
23 18.04 штиль 0 н/о н/о +21.2 +16.8 76 +25 +25 комфорт 1020.6 969.4
00 19.04 штиль 0
{1}
н/о н/о +19.5 +17.1 86 +21 +21 комфорт 1021.7 970.1
01 19.04 штиль 0
{1}
н/о н/о +18.8 +16.6 87 +20 +20 1022.4 970.7
02 19.04 штиль 0 н/о н/о +17.5 +16.1 91 +17 +17 1022.6 970.6
03 19.04 штиль 0
{1}
н/о н/о +16.7 +15.4 92 +17 +17 1022.8 970.7
04 19.04 штиль 0
{1}
н/о н/о +15.6 +14.5 93 +15 +15 1023.0 970.7
05 19.04 штиль 0
{1}
н/о н/о +15.5 +14.5 94 +15 +15 1022.7 970.4
06 19.04 штиль 0
{1}
н/о н/о +14.9 +13.9 94 +15 +15 1022.9 970.5
07 19.04 штиль 0
{1}
н/о н/о +14.6 +13.8 95 +14 +14 1023.0 970.5
08 19.04 штиль 0 н/о н/о +14.1 +13.3 95 +14 +14 1023.3 970.7
09 19.04 штиль 0 н/о н/о +13.7 +13.0 96 +13 +13 1023.9 971.2
10 19.04 штиль 0
{1}
н/о н/о +14.3 +13.7 96 +14 +14 1024.6 972.0
11 19.04 штиль 0
{1}
н/о н/о +15.6 +14.9 96 +15 +15 1025.0 972.6
12 19.04 штиль 0
{1}
н/о н/о +20.9 +17.9 83 +25 +25 комфорт 1024.7 973.2
13 19.04 С 1
{2}
н/о н/о +23.4 +18.1 72 +29 +29 душно 1024.3 973.3
14 19.04 СВ 1
{2}
н/о н/о +25.6 +16.9 59 +29 +29 душно 1023.6 973.0
15 19.04 СВ 1
{2}
н/о н/о +27.5 +17.1 53 +31 +31 душно 1022.6 972.3
16 19.04 З 1
{2}
н/о н/о +28.6 +14.5 42 +31 +31 жарко 1021.7 971.6
17 19.04 З 1
{2}
н/о н/о +29.5 +12.7 36 +31 +31 жарко 1020.3 970.5
18 19.04 штиль 0
{2}
н/о н/о +29.4 +13.1 37 +31 +31 жарко 1019.6 969.8
19 19.04 Ю 1
{2}
н/о н/о +28.9 +13.6 39 +31 +31 жарко 1019.2 969.3
20 19.04 штиль 0
{2}
н/о н/о +27.5 +15.4 48 +30 +30 жарко 1019.1 969.0
21 19.04 штиль 0
{1}
н/о н/о +23.5 +17.0 67 +27 +27 душно 1020.1 969.3
22 19.04 штиль 0 н/о н/о +22.3 +15.5 65 +26 +26 жарко 1020.8 969.7
23 19.04 штиль 0 н/о н/о +21.4 +16.1 72 +25 +25 комфорт 1021.8 970.5
00 20.04 штиль 0 н/о н/о +19.8 +16.9 83 +22 +22 комфорт 1022.6 971.0
01 20.04 штиль 0 н/о н/о +19.3 +17.5 89 +21 +21 комфорт 1022.8 971.1
02 20.04 штиль 0
{1}
н/о н/о +18.7 +17.2 91 +20 +20 1022.9 971.1
03 20.04 штиль 0
{1}
н/о н/о +18.1 +16.7 92 +18 +18 1023.1 971.2
04 20.04 штиль 0
{1}
н/о н/о +17.9 +16.1 89 +18 +18 1023.1 971.2
05 20.04 штиль 0
{1}
н/о н/о +17.1 +15.5 90 +17 +17 1023.0 970.9
06 20.04 штиль 0
{1}
н/о н/о +16.8 +15.6 93 +17 +17 1022.8 970.7
07 20.04 штиль 0 н/о н/о +16.3 +15.1 93 +16 +16 1023.2 971.0
08 20.04 штиль 0 н/о н/о +15.7 +14.6 93 +15 +15 1023.6 971.3
09 20.04 штиль 0
{1}
н/о н/о +15.7 +14.8 94 +15 +15 1023.6 971.3 0.2
10 20.04 штиль 0
{1}
н/о н/о +15.2 +14.4 95 +15 +15 1024.9 972.4
11 20.04 штиль 0
{1}
н/о н/о +16.7 +15.5 93 +17 +17 1024.9 972.7
12 20.04 штиль 0
{2}
н/о н/о +22.1 +17.4 75 +27 +27 душно 1024.4 973.1
13 20.04 ЮВ 1
{1}
н/о н/о +25.6 +16.7 58 +29 +29 душно 1023.6 973.0
14 20.04 штиль 0
{2}
н/о н/о +27.3 +16.6 52 +31 +31 душно 1022.8 972.5
15 20.04 ЮЗ 1
{2}
н/о н/о +29.4 +15.1 42 +32 +32 душно 1021.3 971.4
16 20.04 СЗ 1
{2}
н/о н/о +29.9 +15.0 40 +32 +32 жарко 1020.6 970.8
17 20.04 З 1
{3}
н/о н/о +30.8 +16.2 41 +34 +34 очень
душно
1019.5 969.9
18 20.04 З 1
{2}
н/о н/о +30.4 +17.3 45 +34 +34 очень
душно
1019.1 969.5
19 20.04 штиль 0
{2}
н/о н/о +29.8 +18.5 51 +35 +35 очень
душно
1018.7 969.0
20 20.04 штиль 0
{1}
н/о н/о +27.6 +17.9 56 +32 +32 очень
душно
1019.2 969.1
21 20.04 штиль 0
{1}
н/о н/о +25.4 +18.0 64 +30 +30 душно 1019.8 969.3
22 20.04 штиль 0 н/о н/о +23.4 +18.1 72 +29 +29 душно 1020.1 969.3
23 20.04 штиль 0 н/о н/о +22.9 +17.9 73 +28 +28 душно 1021.0 970.0
00 21.04 штиль 0
{1}
н/о н/о +22.8 +18.4 76 +28 +28 душно 1021.4 970.4
01 21.04 штиль 0
{1}
н/о н/о +21.2 +18.7 86 +26 +26 душно 1021.8 970.5
02 21.04 штиль 0
{1}
н/о н/о +20.3 +18.8 91 +24 +24 комфорт 1022.1 970.6
03 21.04 штиль 0 н/о н/о +19.5 +18.2 92 +22 +22 комфорт 1022.4 970.8
04 21.04 штиль 0
{1}
н/о н/о +18.9 +17.8 93 +20 +20 1022.0 970.3
05 21.04 штиль 0
{1}
н/о н/о +18.7 +17.7 94 +20 +20 1021.5 969.8
06 21.04 штиль 0
{2}
н/о н/о +18.1 +17.0 93 +18 +18 1021.0 969.2
07 21.04 штиль 0
{1}
н/о н/о +17.9 +16.9 94 +18 +18 1021.4 969.6
08 21.04 штиль 0 н/о н/о +18.0 +17.1 94 +18 +18 1021.4 969.6
09 21.04 штиль 0 н/о н/о +17.6 +16.7 94 +18 +18 1021.7 969.8
10 21.04 штиль 0
{1}
н/о н/о +17.1 +16.3 95 +17 +17 1022.0 970.0
11 21.04 штиль 0
{1}
н/о н/о +18.6 +17.5 93 +20 +20 1022.3 970.5
12 21.04 штиль 0
{2}
н/о н/о +22.7 +19.6 83 +29 +29 очень
душно
1022.0 971.0
13 21.04 СВ 1
{2}
н/о н/о +27.3 +19.6 63 +33 +33 очень
душно
1021.5 971.2
14 21.04 В 1
{2}
н/о н/о +29.9 +18.8 51 +35 +35 очень
душно
1020.3 970.5
15 21.04 С 1
{2}
н/о н/о +31.4 +16.9 42 +35 +35 очень
душно
1019.2 969.7
16 21.04 С 1
{3}
н/о н/о +31.5 +14.9 37 +34 +34 душно 1018.4 969.0
17 21.04 СЗ 1
{3}
н/о н/о +31.8 +14.9 36 +34 +34 душно 1017.8 968.4
18 21.04 С 1
{3}
н/о н/о +32.1 +15.7 37 +35 +35 очень
душно
1017.2 967.9
19 21.04 С 1
{2}
н/о н/о +31.2 +16.3 41 +34 +34 душно 1017.0 967.6
20 21.04 штиль 0
{2}
н/о н/о +28.4 +18.0 53 +33 +33 очень
душно
1017.5 967.6
21 21.04 ЮВ 1
{1}
н/о н/о +25.6 +17.8 62 +30 +30 душно 1018.2 967.8
22 21.04 штиль 0
{1}
н/о н/о +24.9 +16.7 60 +28 +28 жарко 1018.9 968.4
23 21.04 штиль 0
{1}
н/о н/о +23.1 +17.2 69 +28 +28 душно 1019.7 968.8
00 22.04 штиль 0 н/о н/о +22.5 +17.3 72 +27 +27 душно 1020.2 969.2
01 22.04 штиль 0 н/о н/о +21.6 +17.2 76 +26 +26 душно 1020.3 969.2
02 22.04 штиль 0
{1}
н/о н/о +21.4 +17.8 80 +26 +26 душно 1020.5 969.3
03 22.04 штиль 0
{1}
н/о н/о +21.2 +17.8 81 +25 +25 комфорт 1020.7 969.5
04 22.04 штиль 0
{1}
н/о н/о +20.2 +17.7 86 +23 +23 комфорт 1020.5 969.1
05 22.04 штиль 0 н/о н/о +19.7 +17.5 87 +22 +22 комфорт 1020.0 968.5
06 22.04 штиль 0
{1}
н/о н/о +19.1 +17.3 89 +21 +21 комфорт 1019.8 968.3
07 22.04 штиль 0
{1}
н/о н/о +19.4 +17.7 90 +21 +21 комфорт 1019.8 968.3
08 22.04 штиль 0
{1}
н/о н/о +19.0 +17.4 90 +20 +20 1020.1 968.5
09 22.04 штиль 0
{1}
н/о н/о +19.3 +17.5 89 +21 +21 комфорт 1020.6 969.0
10 22.04 штиль 0
{1}
н/о н/о +19.6 +17.7 89 +22 +22 комфорт 1021.7 970.1
11 22.04 штиль 0
{2}
н/о н/о +19.9 +18.6 92 +23 +23 комфорт 1021.5 970.0
12 22.04 СВ 1
{2}
н/о н/о +22.7 +19.1 80 +29 +29 очень
душно
1021.8 970.8
13 22.04 СВ 1
{2}
н/о н/о +24.9 +18.7 68 +30 +30 душно 1021.8 971.1
14 22.04 СВ 1
{2}
н/о н/о +27.1 +20.0 65 +33 +33 очень
душно
1021.5 971.2
15 22.04 Ю 1
{1}
н/о н/о +27.7 +18.4 57 +33 +33 очень
душно
1021.2 971.0
16 22.04 штиль 0
{1}
н/о н/о +27.1 +18.6 60 +32 +32 очень
душно
1020.8 970.5
17 22.04 З 1
{2}
н/о н/о +26.5 +18.8 63 +32 +32 очень
душно
1020.3 970.0
18 22.04 ЮЗ 1
{3}
н/о н/о +25.1 +18.9 68 +30 +30 душно 1020.2 969.6
19 22.04 ЮЗ 1
{2}
н/о н/о +24.3 +19.4 74 +29 +29 душно 1020.1 969.4
20 22.04 Ю 1
{2}
н/о н/о +24.0 +18.0 69 +28 +28 душно 1020.2 969.5
21 22.04 ЮЗ 1
{2}
н/о н/о +23.1 +17.8 72 +29 +29 очень
душно
1020.5 969.6

 

Местоположение метеостанции Ориньюс (Сан-Паулу, Бразилия): широта -22.95 долгота -49.90 высота над уровнем моря 450 м.

В архиве по умолчанию представлена погода в Ориньюсе за последнюю неделю. Архивные данные за месяц целиком и за предыдущие месяцы, начиная с января 2011 года, Вы можете получить, выбрав интересующий диапазон дат из раскрывающегося списка и нажав кнопку "Ввод!".


*Определитесь, кто Вы:
робот инопланетянин человек

Внимание! Время в таблицах - всемирное. Для получения местного времени необходимо прибавить поправку, которая равна -3 ч.

Смотрите также архив погоды в соседних городах и на ближайших метеорологических станциях:

Погода в Хоаким-Таворе (Парана, Бразилия) (62 км)
Погода в Нова-Фатиме (Парана, Бразилия) (87 км)
Погода в Ибаити (Парана, Бразилия) (96 км)
Погода в Аваре (Сан-Паулу, Бразилия) (99 км)
Погода в Бауру (Сан-Паулу, Бразилия) (110 км)
Погода в Раншарии (Сан-Паулу, Бразилия) (127 км)
Погода в Лондрине (Парана, Бразилия) (139 км)
Погода в Линсе (Сан-Паулу, Бразилия) (143 км)
Погода в Барра-Боните (Сан-Паулу, Бразилия) (148 км)
Погода в Вентании (Парана, Бразилия) (151 км)

Пояснения к столбцам:

Ветер - указаны скорость ветра в м/с - средняя за 10 мин, порывы в срок и между сроками (в фигурных скобках) и направление, откуда дует ветер: С - северный, СВ - северо-восточный, В - восточный, ЮВ - юго-восточный, Ю - южный, ЮЗ - юго-западный, З - западный, СЗ - северо-западный.
Видимость - горизонтальная дальность видимости в метрах или километрах. При видимости от 1 до 10 км при отсутствии осадков обычно наблюдается дымка, при ухудшении видимости до 1 км и менее - туман. В сухую погоду видимость может ухудшаться дымом, пылью или мглою.
Явления - указаны атмосферные явления, наблюдавшиеся в срок или в последний час перед сроком; фигурными скобками обозначены явления, наблюдавшиеся между сроками (за 1-3 часа до срока); квадратными скобками обозначены град или гололедные отложения с указанием их диаметра в мм.
Облачность - указаны через наклонную черту общая и нижняя облачность в баллах и высота нижней границы облаков в метрах; квадратными скобками обозначены формы облаков: Ci - перистые, Cs - перисто-слоистые, Cc - перисто-кучевые, Ac - высококучевые, As - высокослоистые, Sc - слоисто-кучевые, Ns - слоисто-дождевые, Cu - кучевые, Cb - кучево-дождевые. Подробнее классификацию облаков см. в Атласе облаков (PDF).
T - Температура воздуха - температура, измеренная на высоте 2 м над землей.
Td - Температура точки росы - температура, при понижении до которой содержащийся в воздухе водяной пар достигнет насыщения.
f - Относительная влажность воздуха - влажноcть воздуха, измеренная на высоте 2 м над землей.
Te - Эффективная температура - температура, которую ощущает одетый по сезону человек в тени. Характеристика душности погоды. При расчете учитывается влияние влажности воздуха и скорости ветра на теплоощущения человека.
Tes - Эффективная температура на солнце - температура, которую ощущает человек, с поправкой на солнечный нагрев. Характеристика знойности погоды. Зависит от высоты солнца над горизонтом, облачности и скорости ветра. Ночью, в пасмурную погоду, а также при ветре 12 м/с и более поправка равна нулю.
P - Атмосферное давление - приведенное к уровню моря атмосферное давление.
Po - Атмосферное давление - измеренное на уровне метеостанции атмосферное давление.
Tmin - Минимальная температура - минимум температуры воздуха на высоте 2 м над землей.
Tmax - Максимальная температура - максимум температуры воздуха на высоте 2 м над землей.
R - Количество осадков - Количество выпавших осадков за период времени, мм. При наведении курсора мыши на число - период времени, за который выпало указанное количество осадков.
R24 - Количество осадков - Количество выпавших осадков за 24 часа, мм.
S - Снежный покров - Высота снежного покрова, см. При наведении курсора мыши на число - состояние снежного покрова и степень покрытия местности в баллах.